Location: Biharia
(46.4333°N, 22.8000°E)
Time: 21:25:51
(UTC+00:00)

CENTAUR R/B - Pass Details

Date: 16 October 2021
Orbit: 728 x 1459 km, 63.4° (Epoch: 26 November)

Event Time Altitude Azimuth Distance (km) Brightness Sun altitude
Rises 18:56:05 0° 309° (NW) 3,896 6.6 -33.9°
Reaches altitude 10° 18:59:14 10° 323° (NW) 3,061 5.7 -34.3°
Maximum altitude 19:05:12 25° 17° (NNE) 2,339 4.5 -35.3°
Enters shadow 19:06:07 24° 27° (NNE) 2,388 4.4 -35.4°
